Hourly Data Report for September 28, 2017

All times are specified in Local Standard Time (LST). Add 1 hour to adjust for Daylight Saving Time where and when it is observed.

SUMMERSIDE
PRINCE EDWARD ISLAND

46°26'28.000" N
63°50'17.000" W
12.20 m
8300596
71702
WSD

Download Data

Hourly Data (September 2017)
Hourly Data Report for September 28, 2017
Temp Definition
°C
Dew Point Temp Definition
°C
Rel Hum Definition
%
Wind Dir Definition
10's deg

Wind Spd Definition
km/h
Visibility Definition
km
Stn Press Definition
kPa
Hmdx Definition


Wind Chill Definition


Weather Definition


TIME
00:00 19.7 18.7 94 22 28   100.26     LegendNANA
01:00 20.6 18.7 89 25 20   100.28 27   LegendNANA
02:00 19.9 18.0 89 28 7   100.25     LegendNANA
03:00 19.5 18.2 92 23 11   100.15     LegendNANA
04:00 19.1 18.1 94 21 9   100.10     LegendNANA
05:00 18.7 18.0 96 23 9   100.14     LegendNANA
06:00 18.4 17.5 94 35 9   100.07     LegendNANA
07:00 17.6 14.2 81 30 12   100.03     LegendNANA
08:00 18.0 15.1 83 28 11   99.96     LegendNANA
09:00 19.2 15.2 78 26 15   100.08     LegendNANA
10:00 18.4 13.9 75 31 21   100.08     LegendNANA
11:00 18.4 12.1 67 31 14   100.11     LegendNANA
12:00 18.1 11.5 65 30 16   100.08     LegendNANA
13:00 18.6 11.0 61 28 20   100.05     LegendNANA
14:00 17.8 10.7 63 31 19   100.03     LegendNANA
15:00 18.1 10.3 60 30 23   100.09     LegendNANA
16:00 17.3 9.9 62 31 21   100.08     LegendNANA
17:00 17.4 10.2 63 30 17   100.13     LegendNANA
18:00 15.8 10.5 71             LegendNANA
19:00
20:00 13.9 6.8 62 32 23   100.25     LegendNANA
21:00 12.8 6.4 65 32 22   100.26     LegendNANA
22:00 10.3 5.8 74 32 11   100.27     LegendNANA
23:00 11.3 5.9 69 32 20   100.28     LegendNANA

Notes on Data Quality.

Legend

  • E = Estimated
  • M = Missing
  • NA = Not Available
  • ‡ = Partner data that is not subject to review by the National Climate Archives
Date modified: